Location: eljas
(40.1958°N, 6.8661°W)
Time: 19:53:25
(UTC+02:00)

Daily predictions for brighter satellites

Satellite Brightness Start Highest point End
(mag) Time Altitude Azimuth Time Altitude Azimuth Time Altitude Azimuth
Cosmos 2074 Rocket 4.2 22:08:23 10° SSE 22:14:26 53° E 22:20:30 10° NNE
ERBS 2.9 22:12:45 10° NNW 22:16:08 46° NE 22:19:27 10° ESE
Cosmos 1340 Rocket 2.9 22:20:49 10° S 22:24:47 82° W 22:28:50 10° N
CENTAUR R/B 3.2 22:19:25 10° NNW 22:27:21 87° ENE 22:35:41 10° SSE
PSLV R/B 3.3 22:25:32 10° W 22:28:59 74° SSW 22:32:24 10° ESE
Cosmos 1782 3.4 22:28:53 10° N 22:32:42 40° ENE 22:36:30 10° SSE
H-2A R/B 2.6 22:30:11 10° SE 22:34:18 43° ENE 22:38:20 10° N
Cosmos 1939 Rocket 3.0 22:32:21 10° SSE 22:36:06 51° ENE 22:39:54 10° N
Abrixas rocket 3.7 22:33:14 10° WNW 22:36:17 30° SW 22:39:18 10° SSE
CZ-4 DEB 3.1 22:33:57 10° S 22:37:05 65° WSW 22:40:15 10° NNW
Cosmos 1606 3.8 22:36:45 10° NNE 22:40:12 28° ENE 22:43:01 13° SE
NOSS 2-2 (D) 3.5 22:36:49 10° SSW 22:40:53 89° ESE 22:45:37 10° NE
Meteor 2-6 Rocket 4.5 22:35:44 10° N 22:41:38 59° ENE 22:47:22 10° SSE
Cosmos 1892 3.1 22:42:43 10° SSW 22:46:31 66° W 22:50:22 10° N
Cosmos 2056 Rocket 3.5 22:42:03 10° SSW 22:47:13 89° ESE 22:52:23 10° NNE
USA 186 4.1 22:45:01 10° SSW 22:47:32 23° W 22:50:11 10° NW
EO 1 Delta rocket 4.5 22:42:03 10° NNE 22:48:18 54° E 22:53:17 10° S
NOSS 2-2 (C) 4.0 22:51:33 10° SW 22:55:37 65° NW 23:00:20 10° NNE
Okean 2 Rocket 4.3 22:53:32 16° SE 22:55:41 23° E 22:59:09 10° NE
COSMOS 2406 3.4 22:52:13 10° NNW 22:57:58 76° WSW 23:03:27 11° SSE
ARGOS 4.1 22:56:35 16° ESE 23:00:03 31° ENE 23:04:42 10° N
ATLAS 5 CENTAUR R/B 2.6 22:54:30 10° NW 23:00:33 72° WSW 23:06:10 14° SSE
Sich 1 Rocket 3.6 22:57:19 10° S 23:01:53 75° E 23:06:29 10° N
Cosmos 1674 Rocket 3.6 22:58:40 10° N 23:03:09 85° W 23:07:29 11° S
Cosmos 1184 Rocket 3.8 23:05:04 24° SE 23:06:01 28° E 23:08:56 10° NNE
Cosmos 2278 Rocket 2.4 23:07:40 10° S 23:13:04 48° ESE 23:18:31 10° NE
Cosmos 1782 Rocket 3.9 23:12:53 20° SSE 23:15:41 46° E 23:19:59 10° NNE
Cosmos 1844 3.7 23:10:47 10° SSW 23:16:31 79° ESE 23:22:20 10° NNE
Cosmos 2154 Rocket 3.9 23:12:56 10° S 23:19:10 83° E 23:25:23 10° N
Cosmos 1238 Rocket 2.5 23:17:58 10° N 23:21:06 58° E 23:22:26 33° SSE
Cosmos 1844 Rocket 3.0 23:16:19 10° SSW 23:21:58 70° WNW 23:27:37 10° NNE
CZ-4 SHROUD 3.0 23:21:44 35° SSE 23:22:53 80° ENE 23:25:59 10° N
Okean 3 3.6 23:19:00 10° N 23:23:15 58° E 23:25:15 29° SSE
SPOT 5 3.1 23:19:49 16° S 23:24:02 81° WSW 23:29:25 10° NNW
Envisat 3.5 23:19:23 10° S 23:24:17 56° W 23:29:18 10° NNW
SL-27 R/B 3.7 23:22:02 10° NNW 23:25:28 39° WSW 23:27:52 17° SSW
COS B Rocket 3.4 23:22:40 10° N 23:26:51 74° W 23:29:35 18° S
Terra 3.2 23:29:03 20° E 23:30:34 23° ENE 23:34:18 10° NNE
Cosmos 1975 Rocket 3.1 23:27:45 10° N 23:32:02 61° E 23:33:46 34° SSE
COSMOS 2487 2.7 23:29:13 10° N 23:32:48 55° ENE 23:33:40 42° ESE
Cosmos 2082 Rocket 3.5 23:28:15 10° N 23:33:06 28° NE 23:35:43 20° E
Cosmos 1420 Rocket 4.2 23:30:57 21° S 23:34:14 51° ESE 23:39:17 10° NNE
MetOp-A 4.2 23:30:26 20° S 23:34:14 78° WSW 23:39:37 10° NNW
H-2A R/B 3.1 23:32:44 24° ESE 23:34:54 33° ENE 23:39:38 10° N
PSLV R/B 3.6 23:35:31 35° SSW 23:36:26 53° W 23:39:20 10° NNW
Cosmos 1825 2.4 23:36:39 19° SSW 23:39:16 69° W 23:43:05 10° N
Cosmos 1862 3.9 23:37:01 13° SSW 23:40:37 58° W 23:44:40 10° N
Cosmos 1908 Rocket 4.4 23:36:34 10° SSW 23:40:50 51° W 23:45:11 10° N
BREEZE-M DEB (TANK) 4.4 23:40:57 10° W 23:42:55 19° SSW 23:43:06 19° SSW
Meteor 1-27 Rocket 4.2 23:38:09 10° NNW 23:43:37 58° W 23:47:44 17° S
Cosmos 489 Rocket 4.4 23:37:53 10° NNW 23:44:08 74° ENE 23:47:13 31° SSE
Cosmos 407 Rocket 4.3 23:39:14 10° NNW 23:44:17 47° WSW 23:47:48 19° S
Cosmos 2297 4.0 23:43:16 30° SSE 23:45:29 44° ESE 23:50:55 10° NE
USA 234 3.4 23:39:54 10° NE 23:46:12 49° SE 23:52:27 10° SSW
Cosmos 1378 Rocket 4.0 23:42:42 10° NNW 23:46:56 55° W 23:49:18 24° SSW
YAOGAN 6 3.1 23:45:54 33° SSW 23:47:09 53° W 23:50:36 10° NNW
ISS -2.2 23:44:53 10° SW 23:46:43 31° SW 23:46:43 31° SW
USA 245 2.8 23:47:58 58° SSW 23:48:28 74° W 23:52:09 10° NNW
Cosmos 1408 3.4 23:46:22 19° SSW 23:48:46 50° W 23:52:21 10° N
SPOT 1/Viking Rocket 3.5 23:47:18 30° S 23:49:58 83° WSW 23:55:13 10° NNW
Cosmos 2366 rocket 4.3 23:47:50 32° SE 23:50:23 48° E 23:56:25 10° NNE
Cosmos 1452 Rocket 4.1 23:45:13 10° SSW 23:50:24 58° WNW 23:55:37 10° NNE
Cosmos 614 Rocket 4.4 23:46:32 10° N 23:51:27 47° ENE 23:52:56 37° ESE
